Location: Unspecified
(35.6961°N, 0.0000°E)
Time: 21:48:45
(UTC+00:00)

Explorer 11/Cluster Stage 4 - Pass Details

Date: 23 May 2019
Orbit: 467 x 1260 km, 28.8° (Epoch: 24 June)

Event Time Altitude Azimuth Distance (km) Brightness Sun altitude
Rises 01:47:51 0° 214° (SSW) 3,468 - -27.9°
Reaches altitude 10° 01:51:59 10° 189° (S) 2,326 - -27.5°
Maximum altitude 01:54:31 13° 161° (SSE) 1,978 - -27.3°
Drops below altitude 10° 01:56:51 10° 132° (SE) 2,087 - -27.0°
Exits shadow 01:58:07 - 120° (ESE) 2,310 9.0 -26.9°
Sets 02:00:10 0° 105° (ESE) 2,838 9.7 -26.7°
